Location: Big Prairie
(40.6673°N, 82.0952°W)
Time: 09:23:42
(UTC+00:00)

Meteor 1-26 Rocket - Pass Details

Date: 29 June 2022
Orbit: 810 x 924 km, 81.3° (Epoch: 14 August)

Event Time Altitude Azimuth Distance (km) Brightness Sun altitude
Rises 06:19:37 0° 359° (N) 3,459 8.7 -25.1°
Reaches altitude 10° 06:22:18 10° 9° (N) 2,536 7.7 -25.0°
Maximum altitude 06:27:28 33° 73° (ENE) 1,457 5.6 -24.8°
Enters shadow 06:30:50 19° 124° (SE) 2,000 5.9 -24.7°
